Regional Weather Roundup
Issued by NWS

Home | Current Version | Previous Version | Text Only | Print | Product List | Glossary On
Versions: 1 2 3 4 5 6 7 8 9 10 11 12 13 14 15 16 17 18 19 20 21 22 23 24 25 26 27 28 29 30 31 32 33 34 35 36 37 38 39 40 41 42 43 44 45 46 47 48 49 50
000
ASUS43 KMPX 261410
RWRMN
WEATHER ROUNDUP FOR MINNESOTA
NATIONAL WEATHER SERVICE TWIN CITIES/CHANHASSEN MN
800 AM CST MON JAN 26 2015


NOTE: "FAIR" INDICATES FEW OR NO CLOUDS BELOW 12,000 FEET WITH NO
SIGNIFICANT WEATHER AND/OR OBSTRUCTIONS TO VISIBILITY. N/A MEANS
CURRENT SKY AND/OR WEATHER CONDITIONS ARE NOT AVAILABLE.

MNZ060>063-068>070-261500-
   Twin Cities Metro

CITY           SKY/WX    TMP DP  RH WIND       PRES   REMARKS
TWIN CITIES    CLOUDY    31  27  85 VRB3      29.70F
ST PAUL        CLOUDY    30  27  88 SE6       29.73S WCI  24
CRYSTAL        CLOUDY    31  27  85 S3        29.69S
BLAINE         CLOUDY    32  30  93 S9        29.69S WCI  24
LAKEVILLE      CLOUDY    28  28 100 CALM      29.70F
EDEN PRAIRIE   CLOUDY    32  28  85 SW7       29.69F WCI  26
SOUTH ST PAUL  CLOUDY    31  28  87 S7        29.71S WCI  24
LAKE ELMO      CLOUDY    28  27  93 S7        29.72S WCI  21
$$
MNZ001>005-007-008-013>017-022>024-027-028-261500-
   Northwest Minnesota

CITY           SKY/WX    TMP DP  RH WIND       PRES   REMARKS
BEMIDJI        LGT SNOW  32  31  95 W13       29.61R WCI  23
HALLOCK        CLOUDY    37  32  81 NW21      29.66R
ROSEAU         CLOUDY    36  30  80 W8        29.60R
WARROAD        CLOUDY    36  30  80 W8        29.59R
THIEF RVR FALL CLOUDY    36  30  80 NW15      29.64R
CROOKSTON      CLOUDY    32  28  86 NW13      29.68R WCI  22
FOSSTON        CLOUDY    32  28  86 NW13G18   29.64S WCI  22
DETROIT LAKES  MOCLDY    32  32 100 NW15G22   29.68R WCI  22
MOORHEAD       CLEAR     32  32 100 W8        29.71S WCI  25
PARK RAPIDS    PTCLDY    31  28  89 NW13      29.62R WCI  21
MAHNOMEN       CLOUDY    29  28  94 W10       29.66R WCI  20
$$
MNZ006-009>011-018-025>026-261500-
   North Central Minnesota

CITY           SKY/WX    TMP DP  RH WIND       PRES   REMARKS
BAUDETTE       CLOUDY    33  29  85 NW10      29.55R WCI  25
FLAG ISLAND    CLOUDY    30  30 100 NW17      29.55R WCI  18
INTL FALLS     LGT SNOW  25  23  92 S5        29.55S FOG     WCI  19
WASKISH        CLOUDY    32  30  93 W8        29.58R WCI  25
BIG FORK       MIX PCPN  27  25  93 SW5       29.57S WCI  21
LONGVILLE      CLOUDY    30  27  86 W5        29.60S WCI  25
GRAND RAPIDS   CLOUDY    25  23  93 S5        29.59S WCI  19
CRANE LAKE     SNOW      21  19  93 CALM      29.60S VSB 1/2
ORR            LGT SNOW  21  19  93 CALM      29.55S
COOK           LGT SNOW  21  21 100 S5        29.59S VSB 3/4 WCI  15
WALKER         CLOUDY    32  29  88 W9        29.60R WCI  24
$$
MNZ012-019>021-037-261500-
   Northeast Minnesota

CITY           SKY/WX    TMP DP  RH WIND       PRES   REMARKS
DULUTH         FRZ DRZL  21  18  88 SW12      29.62R WCI   9
ELY            LGT SNOW  19  18  93 S7        29.60S WCI  10
HIBBING        LGT SNOW  22  19  89 S5        29.59S FOG     WCI  16
EVELETH        LGT SNOW  23  21  93 S6        29.61F WCI  16
DULUTH HARBOR  CLOUDY    23  21  93 SW6       29.69S FOG     WCI  16
TWO HARBORS    LGT SNOW  25  19  80 SW9       29.63S WCI  15
SILVER BAY     LGT SNOW  23  19  86 S5        29.65S WCI  17
GRAND MARAIS     N/A     26  23  88 S16       29.72F WCI  14
G MARAIS ARPRT LGT SNOW  18  14  86 S9        29.64S WCI   6
$$
MNZ029>031-032-039>041-046>048-054>057-064-261500-
   West Central Minnesota

CITY           SKY/WX    TMP DP  RH WIND       PRES   REMARKS
FERGUS FALLS   CLEAR     28  27  93 NW9       29.73S WCI  20
WHEATON        CLEAR     34  30  86 W16       29.76R WCI  23
MORRIS         CLEAR     34  30  86 NW13      29.71R WCI  25
ALEXANDRIA     CLEAR     31  28  89 W13       29.68R WCI  21
ELBOW LAKE     FAIR      29  28  96 NW8       29.70S WCI  21
WADENA         CLEAR     27  25  93 W7        29.65R WCI  19
GLENWOOD       CLEAR     32  30  93 NW13      29.69R WCI  22
APPLETON       CLEAR     34  30  86 W8        29.74R WCI  27
ORTONVILLE     CLEAR     37  30  75 W14       29.75R
MADISON        PTCLDY    39  36  87 NW14      29.75R
WILLMAR        FAIR      34  30  86 NW10      29.72R WCI  26
$$
MNZ033>034-036-042>043-049>051-058-059-261500-
   Central Minnesota

CITY           SKY/WX    TMP DP  RH WIND       PRES   REMARKS
ST CLOUD       CLOUDY    30  28  92 S6        29.67R WCI  24
SAUK CENTRE    FAIR      30  28  93 W7        29.67S WCI  23
PAYNESVILLE    CLEAR     28  28 100 SW9       29.69R WCI  19
AITKIN         CLOUDY    28  25  86 CALM      29.61F
PINE RIVER     CLOUDY    30  28  93 W5        29.66R WCI  25
BRAINERD       MOCLDY    26  25  96 SW6       29.63F WCI  19
STAPLES        PTCLDY    28  28 100 W10       29.65R WCI  19
LONG PRAIRIE   FAIR      30  28  93 W8        29.66S WCI  23
LITTLE FALLS   CLOUDY    32  28  86 CALM      29.66F
LITCHFIELD     CLEAR     32  30  93 W6        29.69R WCI  26
BUFFALO        CLOUDY    32  29  90 CALM      29.69S
MAPLE LAKE     CLOUDY    32  32  97 CALM      29.69R
$$
MNZ037-044-045-052-053-261500-
   East Central Minnesota

CITY           SKY/WX    TMP DP  RH WIND       PRES   REMARKS
PRINCETON      CLOUDY    30  28  93 CALM      29.68S
MORA           CLOUDY    27  23  86 S3        29.68S
CAMBRIDGE      MOCLDY    30  21  69 S6        29.66F WCI  24
RUSH CITY      CLOUDY    25  23  92 S7        29.68F WCI  17
MOOSE LAKE     CLOUDY    23  21  93 SW6       29.64S FOG     WCI  16
HINCKLEY       CLOUDY    25  25 100 S8        29.66F FOG     WCI  16
CLOQUET        CLOUDY    21  19  93 S8        29.63S FOG     WCI  12
MCGREGOR       CLOUDY    27  25  93 S7        29.62F WCI  19
$$
MNZ071>073-080-081-089-090-097-098-261500-
   Southwest Minnesota

CITY           SKY/WX    TMP DP  RH WIND       PRES   REMARKS
MONTEVIDEO     PTCLDY    36  36 100 N9G16     29.74R
GRANITE FALLS  MOCLDY    35  32  88 W14       29.75R WCI  26
CANBY          PTCLDY    37  32  84 NW10      29.78R
MARSHALL       MOCLDY    36  28  75 NW15      29.77R
REDWOOD FALLS  MOCLDY    36  32  85 W14       29.72R
OLIVIA         PTCLDY    34  32  93 NW10G17   29.71R WCI  26
PIPESTONE      PTCLDY    36  32  87 NW14      29.77R
WINDOM         CLOUDY    36  32  87 W13       29.73S
WORTHINGTON    MOCLDY    34  28  80 W15       29.76R WCI  24
JACKSON        CLOUDY    36  32  87 W14G21    29.75R
TRACY          MOCLDY    38  33  81 NW15      29.75R
SLAYTON        FAIR      35  31  88 NW17      29.76R WCI  24
$$
MNZ065>067-074>077-082>085-091>093-261500-
   South Central Minnesota

CITY           SKY/WX    TMP DP  RH WIND       PRES   REMARKS
MANKATO        MOCLDY    34  28  80 SW8       29.72R WCI  27
NEW ULM        MOCLDY    34  30  86 W9        29.71S WCI  26
ST JAMES       CLOUDY    37  32  81 W14       29.73S
FAIRMONT       CLOUDY    36  28  75 W13       29.73F
GLENCOE        CLOUDY    34  32  93 SW6       29.69S WCI  29
FARIBAULT      CLOUDY    32  30  93 S5        29.72S WCI  27
OWATONNA       CLOUDY    32  28  86 S13       29.73F WCI  22
WASECA         CLOUDY    32  30  93 S8        29.73F WCI  25
ALBERT LEA     CLOUDY    34  32  93 SW8       29.73F WCI  27
$$
MNZ078>079-086>088-094>096-261500-
   Southeast Minnesota

CITY           SKY/WX    TMP DP  RH WIND       PRES   REMARKS
ROCHESTER      CLOUDY    27  24  89 S16       29.72F WCI  15
RED WING       CLOUDY    28  25  86 S6        29.74S WCI  22
STANTON        CLOUDY    31  28  86 S8        29.70S WCI  24
DODGE CENTER   CLOUDY    28  28 100 S15       29.71F WCI  17
WINONA         CLOUDY    25  23  93 SE6       29.81F WCI  18
AUSTIN         CLOUDY    28  27  93 S8        29.75F WCI  20
PRESTON        CLOUDY    23  21  92 S14       29.77F WCI  11
$$
ABBREVIATIONS USED IN REMARKS
   TC - TEMPERATURES IN CELSIUS
  WCI - WIND CHILL INDEX
   HX - HEAT INDEX
  VSB - VISIBILITY
$$


USA.gov is the U.S. government's official web portal to all federal, state and local government web resources and services.